Hurghada, Egypt

2:09 PM EET on February 23, 2017 (GMT +0200)
Hurghada International

Weather History for HEGN - June, 2013

Change the Weather History Date:

Sunday, June 9, 2013

  Actual Average Record
Temperature  
Mean Temperature 94 °F -  
Max Temperature 104 °F 94 °F 104 °F (2008)
Min Temperature 84 °F 78 °F 75 °F (2005)
Cooling Degree Days 29    
Growing Degree Days 44 (Base 50)    
Moisture  
Dew Point 49 °F    
Average Humidity 21    
Maximum Humidity 37    
Minimum Humidity 7    
Precipitation  
Precipitation 0.00 in - - ()
Sea Level Pressure  
Sea Level Pressure 29.72 in    
Wind  
Wind Speed 11 mph ()    
Max Wind Speed 26 mph    
Max Gust Speed -    
Visibility 3.7 miles    
Events      
Averages and records for this station are not official NWS values.
T = Trace of Precipitation, MM = Missing Value Source: Averaged Metar Reports

Daily Weather History Graph

Daily Weather History Graph

Search for Another Location

Airport or City:

Trip Planner

Search our weather history database for the weather conditions in past years. The results will help you decide how hot, cold, wet, or windy it might be!

Date:

Astronomy

Jun. 09, 2013 Rise Set
Actual Time 4:50 AM EET 6:38 PM EET
Civil Twilight 4:23 AM EET 7:05 PM EET
Nautical Twilight 3:52 AM EET 7:36 PM EET
Astronomical Twilight 3:18 AM EET 8:10 PM EET
Moon 5:24 AM EET (6/9) 7:16 PM EET (6/9)
Length of Visible Light 14h 41m
Length of Day
13h 48m
New Moon, 1% of the Moon is Illuminated
Jun 9
New Moon
Jun 16
First Quarter
Jun 23
Full
Jun 30
Last Quarter
Jul 8
New

Hourly Weather History & Observations

Time (EET) Temp. Heat Index Dew Point Humidity Pressure Visibility Wind Dir Wind Speed Gust Speed Precip Events Conditions
12:00 AM 89.6 °F - 33.8 °F 14% 29.71 in - West 6.9 mph - N/A   Clear
1:00 AM 87.8 °F - 32.0 °F 14% 29.71 in - WNW 3.5 mph - N/A   Clear
2:00 AM 87 °F - 32 °F 7% 29.71 in 6 mi WNW 3.5 mph - -  
2:00 AM 87.8 °F - 32.0 °F 14% 29.71 in - WNW 3.5 mph - N/A   Clear
3:00 AM 86.0 °F - 30.2 °F 13% 29.68 in - Calm Calm - N/A   Clear
4:00 AM 86.0 °F - 32.0 °F 14% 29.68 in - West 6.9 mph - N/A   Clear
5:00 AM 86.0 °F - 33.8 °F 15% 29.71 in - NNW 4.6 mph - N/A   Clear
6:00 AM 86.0 °F - 33.8 °F 15% 29.71 in - North 11.5 mph - N/A   Clear
7:00 AM 91.4 °F - 50.0 °F 24% 29.71 in 5.0 mi North 4.6 mph - N/A   Unknown
8:00 AM 98 °F - 44 °F 9% 29.74 in 5 mi North 16.1 mph - -   Blowing Sand
8:00 AM 98.6 °F - 44.6 °F 16% 29.74 in 5.0 mi North 16.1 mph - N/A   Unknown
9:00 AM 98.6 °F 96.4 °F 53.6 °F 22% 29.74 in 1.9 mi North 23.0 mph - N/A   Sand
10:00 AM 98.6 °F 99.4 °F 60.8 °F 29% 29.74 in 1.9 mi North 23.0 mph - N/A   Sand
11:00 AM 100.4 °F 99.7 °F 57.2 °F 24% 29.74 in 1.9 mi North 20.7 mph - N/A   Sand
12:00 PM 102.2 °F 103.6 °F 60.8 °F 26% 29.71 in 1.9 mi North 20.7 mph - N/A   Sand
1:00 PM 102.2 °F 100.9 °F 55.4 °F 21% 29.71 in 1.9 mi North 20.7 mph - N/A   Sand
2:00 PM 102 °F - 59 °F 16% 29.71 in 2 mi North 20.7 mph - -   Blowing Sand
2:00 PM 102.2 °F 102.4 °F 59.0 °F 24% 29.68 in 1.9 mi North 20.7 mph - N/A   Sand
3:00 PM 100.4 °F 101.3 °F 60.8 °F 27% 29.68 in 1.9 mi North 23.0 mph - N/A   Sand
4:00 PM 98.6 °F 98.5 °F 59.0 °F 27% 29.68 in 3.1 mi North 19.6 mph - N/A   Sand
5:00 PM 98.6 °F 97.2 °F 55.4 °F 24% 29.68 in 3.7 mi North 19.6 mph - N/A   Unknown
6:00 PM 95.0 °F 93.0 °F 55.4 °F 26% 29.68 in 5.0 mi NNW 23.0 mph - N/A   Unknown
7:00 PM 93.2 °F 90.8 °F 53.6 °F 26% 29.71 in 5.0 mi NNW 26.5 mph - N/A   Unknown
8:00 PM 91 °F - 56 °F 21% 29.74 in 5 mi NW 23.0 mph - -   Blowing Sand
8:00 PM 91.4 °F 89.4 °F 55.4 °F 29% 29.74 in 5.0 mi NW 23.0 mph - N/A   Unknown
9:00 PM 89.6 °F 87.7 °F 55.4 °F 31% 29.74 in 5.0 mi NW 25.3 mph - N/A   Unknown
10:00 PM 87.8 °F 86.1 °F 55.4 °F 33% 29.77 in 5.0 mi NW 11.5 mph - N/A   Unknown
11:00 PM 86.0 °F 84.9 °F 57.2 °F 37% 29.80 in 5.0 mi NW 17.3 mph - N/A   Unknown